NEE-02 KRYSAOR

Last updated on Tue Jul 28 2026 00:03:51 GMT+0000 (Coordinated Universal Time)

1 39441U 13066AB 26208.25488132 .00002231 00000+0 24763-3 0 9990 2 39441 97.8897 147.1901 0064494 299.1346 60.3424 14.86782201682155
UTC large
Height (km)
Speed (km/s)
/
Latitude / Longitude
Inclination (degrees)
Orbital Period (minutes)
Azimuth
Elevation
Range (km)
Doppler Factor

Next 0 passes for location: London (51.5072 / 0.1276)

No passes found over London.
NEE-02 KRYSAOR